Location: Kervinic
(48.4279°N, 4.7373°W)
Time: 23:13:45
(UTC+00:00)

NOSS 3-4 (A) - Pass Details

Date: 09 April 2020
Orbit: 895 x 1317 km, 63.4° (Epoch: 30 May)

Event Time Altitude Azimuth Distance (km) Brightness Sun altitude
Rises 19:23:30 0° 318° (NW) 3,796 7.8 -4.3°
Reaches altitude 10° 19:26:01 10° 319° (NW) 2,897 7.1 -4.7°
Maximum altitude 19:32:59 87° 50° (NE) 1,157 3.9 -5.8°
Drops below altitude 10° 19:40:40 10° 139° (SE) 3,190 5.7 -7.0°
Enters shadow 19:42:35 - 140° (SE) 3,858 6.1 -7.3°
